EN

Hourly Weather Dziadowek

Today, 24 October, Saturday

Time Temperature Precipitation Wind Pressure Humidity
00:00 +8°C° 0 mm 2 mps 735 mmHg 91%
01:00 +8°C° 0 mm 2 mps 735 mmHg 92%
02:00 +8°C° 0 mm 2 mps 735 mmHg 93%
03:00 +9°C° 0.2 mm 1 mps 735 mmHg 93%
04:00 +9°C° 0.2 mm 1 mps 734 mmHg 93%
05:00 +10°C° 0.2 mm 1 mps 734 mmHg 93%
06:00 +10°C° 1 mm 1 mps 734 mmHg 94%
07:00 +10°C° 1 mm 1 mps 734 mmHg 94%
08:00 +10°C° 1 mm 1 mps 734 mmHg 95%
09:00 +10°C° 0 mm 1 mps 735 mmHg 90%
10:00 +10°C° 0 mm 2 mps 735 mmHg 86%
11:00 +12°C° 0 mm 2 mps 735 mmHg 81%
12:00 +12°C° 0 mm 3 mps 736 mmHg 79%
13:00 +12°C° 0 mm 4 mps 736 mmHg 77%
14:00 +13°C° 0 mm 4 mps 736 mmHg 75%
15:00 +12°C° 0 mm 4 mps 736 mmHg 78%
16:00 +12°C° 0 mm 3 mps 736 mmHg 81%
17:00 +11°C° 0 mm 3 mps 736 mmHg 84%
18:00 +11°C° 0.1 mm 3 mps 736 mmHg 87%
19:00 +10°C° 0.1 mm 3 mps 737 mmHg 90%
20:00 +10°C° 0.1 mm 4 mps 737 mmHg 92%
21:00 +9°C° 0 mm 3 mps 737 mmHg 93%
22:00 +9°C° 0 mm 3 mps 737 mmHg 94%
23:00 +9°C° 0 mm 3 mps 737 mmHg 95%

Tomorrow, 25 October, Sunday

Time Temperature Precipitation Wind Pressure Humidity
00:00 +9°C° 0 mm 3 mps 738 mmHg 95%
01:00 +8°C° 0 mm 3 mps 738 mmHg 94%
02:00 +8°C° 0 mm 3 mps 738 mmHg 94%
03:00 +8°C° 0 mm 3 mps 738 mmHg 94%
04:00 +7°C° 0 mm 3 mps 738 mmHg 94%
05:00 +7°C° 0 mm 2 mps 738 mmHg 93%
06:00 +7°C° 0 mm 2 mps 738 mmHg 93%
07:00 +7°C° 0 mm 3 mps 739 mmHg 93%
08:00 +7°C° 0 mm 3 mps 739 mmHg 93%
09:00 +9°C° 0 mm 3 mps 739 mmHg 88%
10:00 +10°C° 0 mm 3 mps 739 mmHg 84%
11:00 +12°C° 0 mm 4 mps 740 mmHg 80%
12:00 +12°C° 0 mm 3 mps 740 mmHg 78%
13:00 +13°C° 0 mm 3 mps 740 mmHg 76%
14:00 +14°C° 0 mm 3 mps 740 mmHg 74%
15:00 +13°C° 0 mm 3 mps 739 mmHg 79%
16:00 +12°C° 0 mm 3 mps 739 mmHg 84%
17:00 +12°C° 0 mm 2 mps 739 mmHg 89%
18:00 +10°C° 0 mm 3 mps 739 mmHg 90%
19:00 +10°C° 0 mm 3 mps 739 mmHg 91%
20:00 +9°C° 0 mm 3 mps 739 mmHg 92%
21:00 +9°C° 0 mm 3 mps 739 mmHg 92%
22:00 +9°C° 0 mm 3 mps 739 mmHg 92%
23:00 +9°C° 0 mm 3 mps 739 mmHg 92%

Day after tomorrow, 26 October, Monday

Time Temperature Precipitation Wind Pressure Humidity
00:00 +9°C° 0 mm 3 mps 739 mmHg 92%
01:00 +7°C° 0 mm 4 mps 739 mmHg 92%
02:00 +7°C° 0 mm 4 mps 739 mmHg 92%
03:00 +7°C° 0 mm 4 mps 738 mmHg 92%
04:00 +7°C° 0 mm 4 mps 738 mmHg 91%
05:00 +7°C° 0 mm 5 mps 738 mmHg 90%
06:00 +7°C° 0 mm 5 mps 737 mmHg 90%
07:00 +7°C° 0 mm 5 mps 737 mmHg 91%
08:00 +7°C° 0 mm 5 mps 737 mmHg 91%
09:00 +8°C° 0 mm 5 mps 737 mmHg 88%
10:00 +9°C° 0 mm 6 mps 737 mmHg 86%
11:00 +10°C° 0 mm 6 mps 737 mmHg 83%
12:00 +11°C° 0 mm 6 mps 736 mmHg 82%
13:00 +11°C° 0 mm 6 mps 736 mmHg 81%
14:00 +13°C° 0 mm 6 mps 736 mmHg 80%
15:00 +11°C° 0 mm 6 mps 736 mmHg 81%
16:00 +12°C° 0 mm 5 mps 736 mmHg 83%
17:00 +12°C° 0 mm 5 mps 735 mmHg 84%
18:00 +12°C° 0 mm 5 mps 736 mmHg 85%
19:00 +12°C° 0 mm 5 mps 736 mmHg 86%
20:00 +12°C° 0 mm 5 mps 736 mmHg 87%
21:00 +12°C° 0 mm 5 mps 736 mmHg 87%
22:00 +12°C° 0 mm 5 mps 736 mmHg 87%
23:00 +12°C° 0 mm 5 mps 735 mmHg 88%

, 27 October, Tuesday

Time Temperature Precipitation Wind Pressure Humidity
00:00 +10°C° 0 mm 5 mps 735 mmHg 89%
01:00 +10°C° 0 mm 5 mps 735 mmHg 91%
02:00 +10°C° 0 mm 5 mps 735 mmHg 92%
03:00 +10°C° 0 mm 5 mps 735 mmHg 92%
04:00 +10°C° 0 mm 5 mps 735 mmHg 92%
05:00 +10°C° 0 mm 5 mps 735 mmHg 91%
06:00 +10°C° 0 mm 5 mps 735 mmHg 91%
07:00 +10°C° 0 mm 5 mps 735 mmHg 91%
08:00 +11°C° 0 mm 4 mps 735 mmHg 91%
09:00 +12°C° 0 mm 4 mps 736 mmHg 89%
10:00 +12°C° 0 mm 4 mps 736 mmHg 87%
11:00 +13°C° 0 mm 4 mps 736 mmHg 85%
12:00 +13°C° 0 mm 4 mps 736 mmHg 84%
13:00 +13°C° 0 mm 4 mps 736 mmHg 82%
14:00 +14°C° 0 mm 4 mps 737 mmHg 81%
15:00 +13°C° 0 mm 4 mps 736 mmHg 82%
16:00 +13°C° 0 mm 4 mps 736 mmHg 84%
17:00 +13°C° 0 mm 4 mps 736 mmHg 85%
18:00 +12°C° 0 mm 4 mps 736 mmHg 86%
19:00 +12°C° 0 mm 4 mps 736 mmHg 86%
20:00 +12°C° 0 mm 5 mps 736 mmHg 86%
21:00 +12°C° 0 mm 5 mps 736 mmHg 85%
22:00 +12°C° 0 mm 5 mps 736 mmHg 84%
23:00 +11°C° 0 mm 6 mps 736 mmHg 84%

27 October, Tuesday

Time Temperature Precipitation Wind Pressure Humidity
00:00 +10°C° 0 mm 5 mps 735 mmHg 89%
01:00 +10°C° 0 mm 5 mps 735 mmHg 91%
02:00 +10°C° 0 mm 5 mps 735 mmHg 92%
03:00 +10°C° 0 mm 5 mps 735 mmHg 92%
04:00 +10°C° 0 mm 5 mps 735 mmHg 92%
05:00 +10°C° 0 mm 5 mps 735 mmHg 91%
06:00 +10°C° 0 mm 5 mps 735 mmHg 91%
07:00 +10°C° 0 mm 5 mps 735 mmHg 91%
08:00 +11°C° 0 mm 4 mps 735 mmHg 91%
09:00 +12°C° 0 mm 4 mps 736 mmHg 89%
10:00 +12°C° 0 mm 4 mps 736 mmHg 87%
11:00 +13°C° 0 mm 4 mps 736 mmHg 85%
12:00 +13°C° 0 mm 4 mps 736 mmHg 84%
13:00 +13°C° 0 mm 4 mps 736 mmHg 82%
14:00 +14°C° 0 mm 4 mps 737 mmHg 81%
15:00 +13°C° 0 mm 4 mps 736 mmHg 82%
16:00 +13°C° 0 mm 4 mps 736 mmHg 84%
17:00 +13°C° 0 mm 4 mps 736 mmHg 85%
18:00 +12°C° 0 mm 4 mps 736 mmHg 86%
19:00 +12°C° 0 mm 4 mps 736 mmHg 86%
20:00 +12°C° 0 mm 5 mps 736 mmHg 86%
21:00 +12°C° 0 mm 5 mps 736 mmHg 85%
22:00 +12°C° 0 mm 5 mps 736 mmHg 84%
23:00 +11°C° 0 mm 6 mps 736 mmHg 84%

28 October, Wednesday

Time Temperature Precipitation Wind Pressure Humidity
00:00 +12°C° 0 mm 5 mps 736 mmHg 85%
01:00 +10°C° 0 mm 5 mps 736 mmHg 87%
02:00 +11°C° 0 mm 4 mps 737 mmHg 88%
03:00 +11°C° 0 mm 4 mps 737 mmHg 90%
04:00 +10°C° 0 mm 3 mps 737 mmHg 92%
05:00 +10°C° 0 mm 2 mps 737 mmHg 94%
06:00 +10°C° 0 mm 2 mps 737 mmHg 95%
07:00 +10°C° 0 mm 2 mps 738 mmHg 95%
08:00 +10°C° 0 mm 2 mps 738 mmHg 95%
09:00 +10°C° 0 mm 2 mps 738 mmHg 90%
10:00 +12°C° 0 mm 1 mps 739 mmHg 85%
11:00 +13°C° 0 mm 1 mps 739 mmHg 79%
12:00 +13°C° 0 mm 2 mps 739 mmHg 78%
13:00 +13°C° 0 mm 2 mps 739 mmHg 77%
14:00 +13°C° 0 mm 2 mps 739 mmHg 76%
15:00 +13°C° 0 mm 2 mps 739 mmHg 78%
16:00 +12°C° 0 mm 2 mps 739 mmHg 81%
17:00 +10°C° 0 mm 2 mps 739 mmHg 84%
18:00 +10°C° 0 mm 2 mps 739 mmHg 87%
19:00 +9°C° 0 mm 2 mps 739 mmHg 90%
20:00 +9°C° 0 mm 2 mps 739 mmHg 93%
21:00 +9°C° 0 mm 2 mps 739 mmHg 93%
22:00 +9°C° 0 mm 3 mps 739 mmHg 93%
23:00 +9°C° 0 mm 3 mps 739 mmHg 92%

29 October, Thursday

Time Temperature Precipitation Wind Pressure Humidity
00:00 +9°C° 0 mm 3 mps 739 mmHg 92%
01:00 +9°C° 0 mm 3 mps 739 mmHg 92%
02:00 +9°C° 0 mm 3 mps 738 mmHg 92%
03:00 +9°C° 0 mm 3 mps 738 mmHg 92%
04:00 +9°C° 0 mm 3 mps 738 mmHg 92%
05:00 +9°C° 0 mm 3 mps 738 mmHg 93%
06:00 +9°C° 0 mm 3 mps 738 mmHg 93%
07:00 +9°C° 0 mm 3 mps 738 mmHg 94%
08:00 +8°C° 0 mm 3 mps 738 mmHg 94%
09:00 +9°C° 0 mm 3 mps 738 mmHg 86%
10:00 +10°C° 0 mm 4 mps 738 mmHg 79%
11:00 +12°C° 0 mm 4 mps 738 mmHg 71%
12:00 +12°C° 0 mm 4 mps 738 mmHg 69%
13:00 +12°C° 0 mm 5 mps 738 mmHg 67%
14:00 +13°C° 0 mm 5 mps 738 mmHg 64%
15:00 +12°C° 0 mm 5 mps 738 mmHg 67%
16:00 +12°C° 0 mm 4 mps 738 mmHg 70%
17:00 +11°C° 0 mm 4 mps 738 mmHg 73%
18:00 +10°C° 0 mm 4 mps 739 mmHg 76%
19:00 +10°C° 0 mm 4 mps 739 mmHg 79%
20:00 +9°C° 0 mm 3 mps 739 mmHg 82%
21:00 +9°C° 0 mm 3 mps 740 mmHg 84%
22:00 +8°C° 0 mm 3 mps 740 mmHg 87%
23:00 +7°C° 0 mm 3 mps 740 mmHg 90%
Show more